[[{"header":{"parameterUnit":"m.s-1","parameterCategory":1,"la1":30.2991,"la2":30.254,"lo1":-89.0895,"lo2":-89.0444,"dy":0.0017,"dx":0.0017,"nx":28,"ny":28,"refTime":"2025-02-10T03:00:00:Z","depth":0,"parameterNumber":2,"parameterNumberName":"U-component_of_WINDS"},"data":[0,0,0,0,0,0,0,0,0,0,0,0,0,0,0,0,0,0,0,0,0,0,0,0,0,0,0,0,0,0,0,0,0,0,0,0,0,0,0,0,0,0,0,0,0,0,0,0,0,0,0,0,0,0,0,0,0,0,-2.0021,-2.0021,0,-2.0056,-2.0057,-2.0057,-1.9998,-1.9995,-1.9993,-1.9992,-2.003,-2.0033,-2.0035,0,0,0,0,0,0,0,0,0,0,0,0,0,-1.9904,-1.9906,-2.0021,-2.0021,-2.0022,-2.0056,-2.0057,-2.0057,-1.9998,-1.9995,-1.9993,-1.9991,-2.0029,-2.0032,-2.0036,0,0,0,0,0,0,0,0,0,0,0,0,0,-1.9949,-1.9907,-2.0021,-1.9996,-1.9994,-2.0056,-2.0057,-2.0057,-1.9998,-1.9995,-1.9992,-1.9989,-2.0028,-2.0032,-2.0036,-2.0124,0,0,-2.0049,-2.0051,0,0,0,0,0,0,0,0,-1.9946,-1.9953,-1.9999,-1.9998,-1.9996,-2.0019,-2.0029,-2.008,-1.9999,-1.9997,-1.9991,-1.9988,-2.0029,-2.0033,-2.0046,-2.0126,-2.0127,-2.005,-2.0052,-2.0054,-2.0056,0,0,0,0,0,0,0,-1.9943,-1.9951,-2.0035,-2.0,-1.9998,-1.9984,-1.9987,-2.0039,-2.003,-1.9997,-1.9993,-1.9998,-2.0027,-2.0042,-2.0047,-2.0128,-2.005,-2.0054,-2.0056,-2.0058,-2.0281,-2.0285,0,0,0,0,0,0,-1.9943,-1.9949,-2.0034,-2.0036,-1.9963,-1.9989,-1.9992,-2.0015,-2.0029,-2.0028,-2.0,-1.9995,-2.0036,-2.0042,-2.0048,-2.0152,-2.0054,-2.0058,-2.0061,-2.0278,-2.0282,-2.0286,0,0,0,0,0,0,-1.9941,-1.9951,-2.0032,-1.9991,-2.0001,-1.9994,-2.002,-2.0017,-2.0032,-2.0031,-2.0029,-2.0017,-2.0034,-2.0042,-2.0105,-2.0152,-2.006,-2.0064,-2.0274,-2.0279,-2.0284,-2.036,0,0,0,0,0,0,-1.9937,-1.9951,-1.9983,-1.9992,-2.0003,-2.0089,-2.0023,-2.002,-2.0039,-2.0033,-2.0046,-2.0046,-2.0032,-2.0099,-2.011,-2.0157,-2.0068,-2.027,-2.0277,-2.0282,-2.0353,-2.0367,-2.0379,0,0,0,0,0,-1.9934,-2.0004,-1.9985,-1.9996,-2.0044,-2.0092,-2.0098,-2.008,-2.0043,-2.0077,-2.0076,-2.0045,-2.0145,-2.0106,-2.0118,-2.0166,-2.0267,-2.0275,-2.0282,-2.0348,-2.0364,-2.0379,0,0,0,0,0,0,-2.0001,-2.0004,-1.9984,-2.0059,-2.0076,-2.0082,-2.0123,-2.0098,-2.0126,-2.0118,-2.0096,-2.01,-2.0168,-2.0173,-2.013,-2.0252,-2.02,-2.021,-2.0246,-2.0262,-2.0275,-2.0272,-2.0071,0,0,0,0,0,-2.0024,-2.0062,-2.0064,-2.013,-2.0139,-2.013,-2.015,-2.0135,-2.0151,-2.0158,-2.0162,-2.018,-2.0215,-2.0239,-2.0271,-2.0354,-2.0356,-2.0393,-2.0406,-2.0416,-2.0425,-2.047,-2.0486,-2.031,-2.031,-2.031,0,0,-2.0073,-2.008,-2.0106,-2.0144,-2.0154,-2.0195,-2.0136,-2.0181,-2.0211,-2.0165,-2.0225,-2.0229,-2.0247,-2.0321,-2.0354,-2.0328,-2.0475,-2.0426,-2.0434,-2.0438,-2.0479,-2.0496,-2.0511,-2.0315,-2.0314,-2.0314,0,0,-2.0184,-2.0192,-2.0248,-2.0261,-2.0278,-2.0271,-2.0285,-2.0295,-2.0295,-2.0355,-2.0321,-2.0357,-2.0418,-2.0433,-2.0448,-2.0564,-2.0537,-2.0575,-2.0642,-2.0686,-2.0699,-2.0712,-2.0754,-2.0769,-2.0584,-2.0585,-2.0585,0,-2.0243,-2.0302,-2.0281,-2.0328,-2.0346,-2.0306,-2.0363,-2.0376,-2.0403,-2.0417,-2.0387,-2.0463,-2.0472,-2.0549,-2.0577,-2.0591,-2.0606,-2.0574,-2.0699,-2.0711,-2.0722,-2.0762,-2.0778,-2.0589,-2.0589,-2.0588,-2.0588,0,-2.0374,-2.0415,-2.0459,-2.0485,-2.0508,-2.0561,-2.0548,-2.0574,-2.0557,-2.0554,-2.0616,-2.0626,-2.0659,-2.0676,-2.0661,-2.0751,-2.0735,-2.0703,-2.065,-2.0744,-2.0781,-2.0796,-2.0596,-2.0594,-2.0593,-2.0591,0,0,-2.0527,-2.0542,-2.0558,-2.057,-2.0586,-2.0618,-2.0669,-2.0701,-2.0724,-2.0744,-2.0787,-2.0839,-2.081,-2.0827,-2.0813,-2.0851,-2.0943,-2.0814,-2.0814,-2.0838,-2.1044,-2.1069,-2.1086,-2.0925,-2.0928,-2.093,-2.1043,0,-2.0637,-2.0724,-2.0707,-2.0792,-2.083,-2.0793,-2.0837,-2.0852,-2.085,-2.0883,-2.0882,-2.092,-2.0877,-2.0888,-2.0924,-2.0924,-2.0984,-2.0916,-2.0965,-2.0967,-2.0962,-2.1106,-2.1131,-2.1237,-2.1057,-2.1059,-2.1061,0,-2.0777,-2.0802,-2.0891,-2.0901,-2.0916,-2.0957,-2.0985,-2.1017,-2.1033,-2.103,-2.1049,-2.1028,-2.1079,-2.1025,-2.1096,-2.105,-2.1069,-2.1072,-2.1076,-2.108,-2.102,-2.1114,-2.1271,-2.1287,-2.1084,-2.1082,-2.108,0,-2.0881,-2.0936,-2.0997,-2.1008,-2.1021,-2.1051,-2.1058,-2.1071,-2.1092,-2.1117,-2.113,-2.1162,-2.1179,-2.1204,-2.1191,-2.1153,-2.1265,-2.121,-2.1263,-2.1264,-2.1289,-2.1288,-2.1451,-2.1301,-2.1301,-2.13,-2.13,0,-2.1005,-2.1061,-2.1044,-2.1081,-2.1143,-2.1123,-2.1185,-2.1188,-2.12,-2.1238,-2.1207,-2.1243,-2.1224,-2.1259,-2.125,-2.131,-2.1318,-2.1317,-2.1314,-2.132,-2.132,-2.1332,-2.1325,-2.1304,-2.1304,-2.1303,-2.1302,0,-2.1131,-2.1122,-2.1186,-2.1193,-2.1196,-2.1241,-2.1248,-2.1283,-2.1279,-2.1327,-2.1337,-2.1332,-2.1371,-2.1361,-2.1404,-2.1398,-2.1474,-2.1462,-2.1469,-2.1466,-2.152,-2.1515,-2.1697,-2.172,-2.1555,-2.1557,-2.1558,0,-2.1212,-2.1254,-2.1266,-2.1289,-2.1298,-2.1335,-2.1356,-2.1338,-2.1361,-2.1383,-2.1416,-2.1453,-2.1481,-2.1546,-2.1546,-2.158,-2.1568,-2.1629,-2.1573,-2.1577,-2.1569,-2.1567,-2.1571,-2.1641,-2.1643,-2.1644,-2.1645,0,-2.1356,-2.1349,-2.138,-2.141,-2.1436,-2.1458,-2.1478,-2.1499,-2.1482,-2.151,-2.155,-2.1572,-2.1616,-2.1653,-2.1684,-2.1691,-2.1667,-2.1663,-2.1678,-2.1684,-2.1687,-2.1687,-2.15,-2.1659,-2.1658,-2.1657,-2.1656,-2.1656,-2.1461,-2.1497,-2.1511,-2.1547,-2.156,-2.158,-2.1613,-2.1613,-2.1646,-2.168,-2.1668,-2.1714,-2.1729,-2.1767,-2.1779,-2.1815,-2.1792,-2.1812,-2.1818,-2.1823,-2.183,-2.1681,-2.1821,-2.182,-2.182,-2.1819,-2.1819,0,-2.1604,-2.1611,-2.1644,-2.1673,-2.1701,-2.1674,-2.1695,-2.1721,-2.1761,-2.1778,-2.1807,-2.1853,-2.1889,-2.1892,-2.1926,-2.1954,-2.1943,-2.1963,-2.1961,-2.1964,-2.1849,-2.1833,-2.1971,-2.1971,-2.1971,-2.1971,-2.1971,-2.1971,-2.1681,-2.1741,-2.1736,-2.1802,-2.1808,-2.1852,-2.1867,-2.1885,-2.1898,-2.1951,-2.198,-2.1981,-2.1993,-2.2027,-2.2059,-2.2059,-2.2074,-2.2098,-2.2094,-2.1987,-2.1972,-2.1957,-2.1942,-2.2101,-2.2102,-2.2206,-2.2207,-2.2208]},{"header":{"parameterUnit":"m.s-1","parameterCategory":1,"la1":30.2991,"la2":30.254,"lo1":-89.0895,"lo2":-89.0444,"dy":0.0017,"dx":0.0017,"nx":28,"ny":28,"refTime":"2025-02-10T03:00:00:Z","depth":0,"parameterNumber":3,"parameterNumberName":"V-component_of_WINDS"},"data":[0,0,0,0,0,0,0,0,0,0,0,0,0,0,0,0,0,0,0,0,0,0,0,0,0,0,0,0,0,0,0,0,0,0,0,0,0,0,0,0,0,0,0,0,0,0,0,0,0,0,0,0,0,0,0,0,0,0,-0.4441,-0.444,0,-0.4411,-0.441,-0.441,-0.441,-0.4411,-0.4411,-0.4412,-0.4379,-0.4378,-0.4377,0,0,0,0,0,0,0,0,0,0,0,0,0,-0.4498,-0.4497,-0.4441,-0.444,-0.444,-0.4411,-0.441,-0.441,-0.441,-0.4411,-0.4411,-0.4412,-0.438,-0.4378,-0.4377,0,0,0,0,0,0,0,0,0,0,0,0,0,-0.4471,-0.4496,-0.4441,-0.4437,-0.4436,-0.4411,-0.441,-0.441,-0.441,-0.4411,-0.4412,-0.4412,-0.438,-0.4378,-0.4376,-0.4352,0,0,-0.4371,-0.437,0,0,0,0,0,0,0,0,-0.4472,-0.4469,-0.4438,-0.4437,-0.4436,-0.4415,-0.4418,-0.439,-0.441,-0.442,-0.4412,-0.4412,-0.439,-0.4388,-0.4381,-0.4351,-0.435,-0.4371,-0.4369,-0.4369,-0.4368,0,0,0,0,0,0,0,-0.4474,-0.447,-0.4429,-0.4437,-0.4436,-0.4436,-0.4433,-0.4413,-0.4402,-0.4419,-0.4419,-0.4416,-0.439,-0.4383,-0.438,-0.4349,-0.4371,-0.4369,-0.4368,-0.4367,-0.4299,-0.4299,0,0,0,0,0,0,-0.4477,-0.4472,-0.443,-0.4428,-0.4456,-0.4435,-0.4431,-0.4421,-0.4402,-0.44,-0.4415,-0.4416,-0.4385,-0.4382,-0.4379,-0.4351,-0.4369,-0.4367,-0.4366,-0.43,-0.4299,-0.4298,0,0,0,0,0,0,-0.4478,-0.4473,-0.4431,-0.445,-0.4444,-0.4433,-0.4422,-0.442,-0.4413,-0.4399,-0.4397,-0.441,-0.4386,-0.4381,-0.4359,-0.435,-0.4366,-0.4364,-0.4301,-0.43,-0.4299,-0.4294,0,0,0,0,0,0,-0.448,-0.4474,-0.4465,-0.445,-0.4443,-0.4412,-0.4421,-0.4419,-0.441,-0.441,-0.4393,-0.4391,-0.4386,-0.4362,-0.4358,-0.4347,-0.4363,-0.4302,-0.43,-0.4299,-0.4295,-0.4293,-0.4291,0,0,0,0,0,-0.4482,-0.4464,-0.4464,-0.4459,-0.4432,-0.4412,-0.4408,-0.4403,-0.4409,-0.44,-0.4391,-0.4392,-0.4351,-0.436,-0.4355,-0.4344,-0.4302,-0.4301,-0.4299,-0.4295,-0.4293,-0.4291,0,0,0,0,0,0,-0.4478,-0.4462,-0.4462,-0.4439,-0.4427,-0.4412,-0.44,-0.44,-0.4386,-0.4387,-0.438,-0.4376,-0.4355,-0.4347,-0.4357,-0.432,-0.4327,-0.4325,-0.4326,-0.4324,-0.4322,-0.4325,-0.4361,0,0,0,0,0,-0.4474,-0.446,-0.4446,-0.4427,-0.4421,-0.4412,-0.4403,-0.44,-0.4387,-0.4381,-0.4371,-0.4358,-0.4343,-0.4333,-0.4317,-0.4293,-0.429,-0.4283,-0.4281,-0.4279,-0.4278,-0.4265,-0.4262,-0.4293,-0.4293,-0.4293,0,0,-0.4466,-0.4456,-0.4447,-0.4426,-0.4416,-0.4401,-0.4407,-0.4391,-0.438,-0.4379,-0.4358,-0.435,-0.4335,-0.4312,-0.4301,-0.4305,-0.4268,-0.4277,-0.4276,-0.4275,-0.4263,-0.426,-0.4258,-0.4292,-0.4293,-0.4293,0,0,-0.4445,-0.4435,-0.4419,-0.4409,-0.4395,-0.4389,-0.4385,-0.437,-0.4365,-0.4344,-0.4344,-0.433,-0.4303,-0.4292,-0.4284,-0.4259,-0.4259,-0.4254,-0.4244,-0.4232,-0.423,-0.4228,-0.422,-0.4217,-0.4252,-0.4252,-0.4252,0,-0.4438,-0.4415,-0.441,-0.4394,-0.4385,-0.4384,-0.4368,-0.4358,-0.4339,-0.4333,-0.4337,-0.4304,-0.4293,-0.4268,-0.4263,-0.4255,-0.4251,-0.4257,-0.4231,-0.4228,-0.4226,-0.4219,-0.4216,-0.4251,-0.4252,-0.4252,-0.4252,0,-0.4407,-0.4392,-0.438,-0.4363,-0.4352,-0.4336,-0.4328,-0.4318,-0.4316,-0.4309,-0.4288,-0.4276,-0.4259,-0.4252,-0.4249,-0.4227,-0.423,-0.4232,-0.424,-0.4223,-0.4216,-0.4213,-0.4251,-0.4251,-0.4251,-0.4251,0,0,-0.4383,-0.4364,-0.436,-0.4352,-0.4336,-0.4324,-0.4308,-0.4292,-0.4284,-0.427,-0.4257,-0.4234,-0.4236,-0.4226,-0.4222,-0.4212,-0.4194,-0.4215,-0.4215,-0.4213,-0.417,-0.4169,-0.4166,-0.4194,-0.4193,-0.4193,-0.4172,0,-0.4361,-0.4333,-0.4328,-0.4303,-0.429,-0.4288,-0.4274,-0.4263,-0.4256,-0.4243,-0.4235,-0.422,-0.4224,-0.4218,-0.4207,-0.4199,-0.4186,-0.42,-0.4182,-0.4181,-0.4187,-0.4162,-0.4161,-0.4142,-0.4169,-0.4168,-0.4168,0,-0.4332,-0.432,-0.4294,-0.4281,-0.4275,-0.4262,-0.4247,-0.4235,-0.4222,-0.4218,-0.4207,-0.4204,-0.4187,-0.4194,-0.4171,-0.4181,-0.4173,-0.4167,-0.4167,-0.4166,-0.4174,-0.4162,-0.4135,-0.4133,-0.4163,-0.4164,-0.4164,0,-0.4319,-0.4295,-0.4277,-0.427,-0.4254,-0.4246,-0.4238,-0.4226,-0.4217,-0.4204,-0.4198,-0.4182,-0.4174,-0.4162,-0.4155,-0.4161,-0.4132,-0.4139,-0.4129,-0.4129,-0.4124,-0.4125,-0.4097,-0.4117,-0.4117,-0.4117,-0.4117,0,-0.4296,-0.4281,-0.4271,-0.426,-0.4243,-0.4237,-0.422,-0.4212,-0.4201,-0.4189,-0.4186,-0.4174,-0.4165,-0.4152,-0.4146,-0.4128,-0.4124,-0.4121,-0.412,-0.4122,-0.4122,-0.4117,-0.4119,-0.4116,-0.4116,-0.4116,-0.4117,0,-0.4279,-0.4272,-0.4252,-0.4239,-0.4235,-0.4223,-0.4211,-0.42,-0.4193,-0.4178,-0.4173,-0.4163,-0.4147,-0.4139,-0.4119,-0.4115,-0.4095,-0.4094,-0.41,-0.41,-0.4091,-0.4092,-0.406,-0.4056,-0.4077,-0.4077,-0.4077,0,-0.4265,-0.4254,-0.4239,-0.4231,-0.4224,-0.421,-0.4201,-0.4195,-0.4185,-0.417,-0.4161,-0.4145,-0.4133,-0.4108,-0.4098,-0.4083,-0.4082,-0.4072,-0.408,-0.4083,-0.4083,-0.4085,-0.4084,-0.4071,-0.4071,-0.4071,-0.407,0,-0.4242,-0.424,-0.4227,-0.4213,-0.4203,-0.4192,-0.418,-0.4174,-0.4165,-0.4155,-0.4139,-0.4129,-0.411,-0.4094,-0.4078,-0.407,-0.4069,-0.4068,-0.4065,-0.4067,-0.4072,-0.407,-0.4098,-0.4069,-0.4069,-0.4069,-0.4069,-0.4069,-0.4227,-0.4217,-0.4206,-0.4192,-0.4183,-0.4173,-0.4162,-0.4155,-0.4142,-0.4126,-0.4122,-0.4106,-0.4094,-0.4073,-0.4064,-0.4051,-0.4053,-0.4049,-0.4048,-0.4047,-0.4047,-0.4073,-0.4048,-0.4048,-0.4048,-0.4048,-0.4048,0,-0.4205,-0.4198,-0.4185,-0.417,-0.416,-0.416,-0.4147,-0.4138,-0.4124,-0.4113,-0.4101,-0.4083,-0.4068,-0.4057,-0.4042,-0.4034,-0.4033,-0.403,-0.4031,-0.403,-0.4046,-0.405,-0.4031,-0.4031,-0.4031,-0.4031,-0.4031,-0.4031,-0.4193,-0.4176,-0.4172,-0.4151,-0.4143,-0.4128,-0.4121,-0.4112,-0.4103,-0.4084,-0.4072,-0.4065,-0.4054,-0.4038,-0.4024,-0.4021,-0.4016,-0.4014,-0.4011,-0.4027,-0.4028,-0.403,-0.4035,-0.4013,-0.4013,-0.3996,-0.3996,-0.3996]}]]